Tracking 19485 objects as of 21-Jan-2019
HD Live streaming from Space Station
objects crossing your sky now

GORIZONT 1

Track GORIZONT 1 now!
GORIZONT 1 is classified as:


NORAD ID: 11158
Int'l Code: 1978-118A
Perigee: 20,765.3 km
Apogee: 50,838.4 km
Inclination: 13.6 °
Period: 1,436.5 minutes
Semi major axis: 42172 km
RCS: 2.5118 m2 (large)
Launch date: December 19, 1978
Source: Commonwealth of Independent States (former USSR) (CIS)
Launch site: TYURATAM MISSILE AND SPACE COMPLEX (TTMTR)
aabbcc
Your satellite tracking list
Your tracking list is empty




NASA's NSSDC Master Catalog

Two Line Element Set (TLE):
1 11158U 78118A   19020.11419899 -.00000026  00000-0  00000+0 0  9993
2 11158  13.6267 251.7959 3565454 216.3773 113.0784  1.00242888 95799
Source of the keplerian elements: AFSPC